User: anonymous
Location: Unspecified
(0.0000°N, 0.0000°E)
Time: 04:56:20
(UTC+02:00)
Language:

Cosmos 1151 - Orbit

View from above orbital plane
View from above orbital plane
View from above satellite
View from above satellite

Ground track
Ground track

The orbit data is extracted from the following two-line orbital elements,

1 11671U 80005A   14210.87475663  .00827989 -11875-5  50955-3 0  5874
2 11671 082.4347 268.9868 0008988 224.3995 135.6679 16.17985134895026
Epoch (UTC): 29 July 2014 20:59:38
Eccentricity: 0.0008988
inclination: 82.4347°
perigee height: 219 km
apogee height: 231 km
right ascension of ascending node: 268.9868°
argument of perigee: 224.3995°
revolutions per day: 16.17985134
mean anomaly at epoch: 135.6679°
orbit number at epoch: 89502

The dashed part of the orbit path shows where the satellite is in the earth's shadow,  

DLR